Regional Weather Roundup
Issued by NWS Boston, MA

Current Version | Previous Version | Text Only | Print | Product List | Glossary Off
Versions: 1 2 3 4 5 6 7 8 9 10 11 12 13 14 15 16 17 18 19 20 21 22 23 24 25 26 27 28 29 30 31 32 33 34 35 36 37 38 39 40 41 42 43 44 45 46 47 48 49 50
000 ASUS41 KBOX 261110 RWRBOX REGIONAL WEATHER ROUNDUP NATIONAL WEATHER SERVICE TAUNTON MA 700 AM EDT SUN APR 26 2015 NOTE: "FAIR" INDICATES FEW OR NO CLOUDS BELOW 12,000 FEET WITH NO SIGNIFICANT WEATHER AND/OR OBSTRUCTIONS TO VISIBILITY. THE FOLLOWING OBSERVATION LOCATIONS DO NOT REPORT PRESENT WEATHER...PROVINCETOWN... SMITHFIELD...BLOCK ISLAND...KEENE...AND OXFORD. MAZALL-261200- EASTERN MASSACHUSETTS CITY SKY/WX TMP DP RH WIND PRES REMARKS BOSTON MOSUNNY 45 31 58 NW5 29.69R BEVERLY CLOUDY 40 33 76 CALM 29.68R LAWRENCE CLOUDY 41 34 76 CALM 29.70R BEDFORD PTSUNNY 44 33 65 CALM 29.68R BLUE HILL N/A 39 31 72 NW6 29.66R NORWOOD CLOUDY 45 33 63 CALM 29.69R MARSHFIELD SUNNY 39 34 81 W3 29.70R PLYMOUTH SUNNY 34 32 92 CALM 29.68R TAUNTON SUNNY 37 33 85 CALM 29.68R NEW BEDFORD SUNNY 36 33 89 CALM 29.68R $$ MAZALL-261200- CAPE COD AND THE ISLANDS CITY SKY/WX TMP DP RH WIND PRES REMARKS FALMOUTH SUNNY 37 32 81 CALM 29.68R HYANNIS SUNNY 41 34 76 NW5 29.66R CHATHAM SUNNY 40 34 79 NW3 29.68R PROVINCETOWN SUNNY N/A N/A N/A NW3 29.68R NANTUCKET SUNNY 45 33 63 N8 29.67R MARTHAS VNYRD SUNNY 38 35 89 N5 29.68R $$ MAZALL-261200- CENTRAL AND WESTERN MASSACHUSETTS CITY SKY/WX TMP DP RH WIND PRES REMARKS WORCESTER CLOUDY 42 28 57 NW10 29.67R FITCHBURG CLOUDY 44 31 60 NW5 29.69R ORANGE CLOUDY 38 33 82 CALM 29.69R SPRINGFIELD CLOUDY 38 35 87 SW1 29.69R WESTFIELD CLOUDY 38 30 73 CALM 29.70R NORTH ADAMS CLOUDY 41 31 67 CALM 29.71R PITTSFIELD CLOUDY 40 29 64 SW5 29.68R $$ RIZALL-261200- RHODE ISLAND CITY SKY/WX TMP DP RH WIND PRES REMARKS PROVIDENCE MOSUNNY 45 31 58 W3 29.69S NEWPORT SUNNY 42 32 67 N3 29.68R BLOCK ISLAND FAIR 41 34 75 CALM 29.69R WESTERLY MOSUNNY 34 30 85 CALM 29.70R $$ CTZALL-261200- CONNECTICUT CITY SKY/WX TMP DP RH WIND PRES REMARKS BRADLEY INTL PTSUNNY 40 31 70 NW3 29.70R HARTFORD CLOUDY 37 32 82 CALM 29.72R BRIDGEPORT MOSUNNY 43 31 62 N5 29.71R DANBURY SUNNY 33 27 78 CALM 29.73R GROTON MOSUNNY 39 32 76 MISG 29.70R NEW HAVEN MOSUNNY 37 32 82 CALM 29.72R CHESTER NOT AVBL MERIDEN SUNNY 32 29 88 CALM 29.72R WILLIMANTIC CLOUDY 36 31 82 CALM 29.71R OXFORD SUNNY 36 25 64 CALM 29.71R $$ MEZ002-015-021-024-NHZ003-005-008-011-012-014-VTZ005-008-261200- NORTHERN NEW ENGLAND CITY SKY/WX TMP DP RH WIND PRES REMARKS PORTLAND ME CLOUDY 43 33 68 W6 29.66S BANGOR ME PTSUNNY 39 34 82 NW3 29.63S CONCORD NH CLOUDY 37 32 82 CALM 29.68R MANCHESTER NH PTSUNNY 43 31 62 CALM 29.67R NASHUA NH SUNNY 42 34 73 CALM 29.69R PORTSMOUTH NH PTSUNNY 40 35 80 NW3 29.67R JAFFREY NH CLOUDY 37 32 82 CALM 29.68R KEENE NH CLOUDY 37 32 81 SW3 29.70R BURLINGTON VT PTSUNNY 43 35 73 N7 29.72R MT. WASHINGTON FOG 21 21 100 N37G47 N/A VSB 0 WCI 1 $$ NYZ052-076-261200- EASTERN NEW YORK CITY SKY/WX TMP DP RH WIND PRES REMARKS ALBANY CLOUDY 42 29 59 W5 29.74R NEW YORK CITY MOCLDY 46 30 53 NE9 29.69S $$ ANZALL-261200- MARINE OBSERVATIONS STATION/POSITION TIME TEMP WIND PRES VSBY WAVE AIR SEA DIR/SP/G HT/PER (UTC) (F) (DEG/KT/KT) (MB) (MI) (FT/S) BOSTON BUOY 1050 43 43 290/ 4/ 6 1005.1R 1/11 BUZZARDS BAY 1000 20/ 9/ 9 1005.4R NANTUCKET SOUND 1050 44 45 340/ 10/ 12 1004.7R 1/10 MASS BAY-STELLWA 1004 42 42 300/ 6/ 8 N/A 1 7/8 1/11 ISLE OF SHOALS 1000 42 300/ 5/ 6 1004.0R S OF BLOCK IS 1008 40 N/A 2/12 $$ ......................KEY......................... SKY/WX - SKY CONDITION/PRESENT WEATHER TMP - TEMPERATURE IN FAHRENHEIT DWPT - DEWPOINT IN FAHRENHEIT RH - RELATIVE HUMIDITY IN PERCENT WIND - DIRECTION AND SPEED IN MPH PRES - MEAN SEA LEVEL PRESSURE IN INCHES OF HG WCI - WIND CHILL INDEX VSB - VISIBILITY IN MILES HX - HEAT INDEX TC - TEMPERATURE IN CELSIUS VRB - VARIABLE WIND DIRECTION N/A - NOT AVAILABLE

USA.gov is the U.S. government's official web portal to all federal, state and local government web resources and services.